Terug naar catalogus

STARLINK-32922

ActiefCommunicatieVLEO
NORAD 62926·PAYLOAD·🇺🇸 United States

Gelanceerd Feb 8, 2025 vanaf Cape Canaveral Space Force Station

Loading…

Volgende Passages (komende 24 uur)

TLE

VersSource: CelesTrak SupGP

Epoch: Sep 14, 2026, 22:43 UTC

1 62926C 25027V   26257.94701389 -.00053427  00000+0 -19357-2 0  2570
2 62926  43.0018 140.2025 0001322 272.4410 134.0671 15.27594868    13

Volg STARLINK-32922 in realtime met AllMySat

Download on the App Store